Regional Weather Roundup
Issued by NWS

Home | Current Version | Previous Version | Graphics & Text | Print | Product List | Glossary On
Versions: 1 2 3 4 5 6 7 8 9 10 11 12 13 14 15 16 17 18 19 20 21 22 23 24 25 26 27 28 29 30 31 32 33 34 35 36 37 38 39 40 41 42 43 44 45 46 47 48 49 50
000
ASUS45 KTFX 132219
RWRMT
MONTANA HOURLY WEATHER ROUNDUP
NATIONAL WEATHER SERVICE GREAT FALLS MT
419 PM MDT SUN JUL 13 2014

NOTE: "FAIR" INDICATES FEW OR NO CLOUDS BELOW 12000 FEET WITH NO
SIGNIFICANT WEATHER AND/OR OBSTRUCTIONS TO VISIBILITY.

* THESE STATIONS ARE NOT UNDER NWS QUALITY CONTROL. THEY DO NOT
   REPORT WEATHER SUCH AS PRECIPITATION OR FOG.

MTZ001>007-043-132300-
WEST OF THE DIVIDE
CITY           SKY/WX    TMP DP  RH WIND       PRES   REMARKS
KALISPELL      SUNNY     93  39  15 CALM      30.14F
MISSOULA       SUNNY     97  43  16 N12       30.13F
MULLAN PASS    SUNNY     79  43  28 NW5       30.36S
* ESSEX        N/A       89  42  19 E3G12      N/A
* LINCOLN      N/A       90  31  12 SW6G14     N/A
* LOOKOUT PASS N/A       85  43  23 SE2G7      N/A
* POLSON       N/A       92  45  20 N3         N/A
* RONAN APT    SUNNY     90  52  27 N5         N/A
* SEELEY LAKE  N/A       92  38  15 W7G13      N/A
* THOMP F APT  SUNNY     82  45  27 S7G15      N/A
* YAAK HILL    N/A       98  47  18 NE2G7      N/A
$$

MTZ008-052>055-132300-
SOUTHWEST MONTANA
CITY           SKY/WX    TMP DP  RH WIND       PRES   REMARKS
W YELLOWSTONE  PTSUNNY   79  41  26 SE3       30.37F
* THREE FORKS  PTSUNNY   90  54  29 N/A        N/A
* BOULDER HILL N/A       82  44  26 N6G12      N/A
* MONIDA PASS  N/A       80  43  27 NE11G16    N/A
* RAYNOLDS PAS N/A       81  63  54 SE1G7      N/A   HI  82
* WHITEHALL    N/A       87  46  24 SE6G11     N/A
* WISE RIVER   N/A       90  43  19 W5G13      N/A
$$

MTZ009>010-012-014-046-048-049-054-132300-
EAST SLOPES AND CENTRAL MONTANA
CITY           SKY/WX    TMP DP  RH WIND       PRES   REMARKS
MALMSTROM AFB  SUNNY     88  41  19 E12G21    30.21F
* CONRAD       SUNNY     86  55  35 N/A        N/A
* DEARBORN     N/A       89  45  22 N11G19     N/A
* EAST GLACIER N/A       79  49  35 SE9        N/A
* MONARCH      N/A       82  35  18 N4G15      N/A
* SAINT MARY   N/A       87  48  26 NE5G12     N/A
* SWEET GRASS  N/A       82  46  28 NE12       N/A
* WHITE SULPH  N/A       89  38  17 W6G14      N/A
$$

MTZ011-013-016-021-035-040-045-047-050-051-132300-
NORTH CENTRAL MONTANA
CITY           SKY/WX    TMP DP  RH WIND       PRES   REMARKS
* FORT BENTON  SUNNY     90  45  21 N7        30.18F
* CHESTER      N/A       86  41  20 E6G14      N/A
* DENTON       N/A       88  44  22 NW12G19    N/A
* GEYSER       N/A       86  42  21 N8         N/A
* JUDITH GAP   N/A       84  47  28 VRB16G23    N/A
* LOMA         N/A       87  46  24 VRB10      N/A
$$

MTZ017>020-022>027-061-062-132300-
NORTHEAST MONTANA
CITY           SKY/WX    TMP DP  RH WIND       PRES   REMARKS
GLENDIVE       SUNNY     81  45  28 NW15G26   30.15F
JORDAN         SUNNY     88  46  23 N12G25    30.16F
SIDNEY         SUNNY     79  39  24 N18G25    30.14F
* BEAVER HILL  N/A       76  41  29 NW24       N/A
* CIRCLE       N/A       80  53  39 W14        N/A
* LINDSAY DVD  N/A       76  49  39 NW16G22    N/A
* NAVAJO       N/A       71  38  30 VRB17G28    N/A
* SACO         N/A       82  50  33 NW18G26    N/A
$$

MTZ028>042-056>058-132300-
SOUTHCENTRAL AND SOUTHEAST MONTANA
CITY           SKY/WX    TMP DP  RH WIND       PRES   REMARKS
BILLINGS       PTCLDY    90  45  21 E10       30.18F
* LAUREL APT   SUNNY     90  48  24 NE5        N/A
* ROUNDUP APT  SUNNY     88  43  21 N11G21     N/A
* ALZADA       N/A       83  47  28 W13        N/A
* HYSHAM       N/A       88  45  22 NE4G9      N/A
* LAME DEER    N/A       80  44  28 NW7G14     N/A
* REED POINT   N/A       94  47  20 NW4G14     N/A
* ROSCOE HILL  N/A       86  36  17 NE4G11     N/A
$$

REGIONAL REPORTS...DAKOTAS
CITY           SKY/WX    TMP DP  RH WIND       PRES   REMARKS
WILLISTON      SUNNY     79  36  21 N18G29    30.12F
DICKINSON      SUNNY     75  39  27 NW20G28   30.10F
CROSBY         SUNNY     68  41  38 N24G32    30.11S
TIOGA          SUNNY     70  37  30 NW20G31   30.13F
WATFORD CITY   SUNNY     73  39  29 NW18G24   30.10S
BISMARCK       SUNNY     75  43  32 NW18G29   30.05F
GRAND FORKS    PTSUNNY   68  48  49 NW20      29.91S
FARGO          PTSUNNY   73  43  34 NW23      29.90F
BUFFALO SD     SUNNY     79  48  34 N24G31    30.07F
RAPID CITY     PTSUNNY   82  55  40 N9        30.12F HI  81
$$

REGIONAL REPORTS...WYOMING/IDAHO/WASHINGTON
CITY           SKY/WX    TMP DP  RH WIND       PRES   REMARKS
GILLETTE       SUNNY     88  34  15 N18G31    30.20R
CODY           PTCLDY    82  46  28 NE7       30.26F
YELLOWSTONE LA CLOUDY    70  45  41 CALM      30.49F
MULLAN PASS    SUNNY     79  43  28 NW5       30.36S
SAND POINT     SUNNY     90  55  31 E3        30.09F
SPOKANE        PTSUNNY   97  36  12 CALM      30.09F
$$

REGIONAL REPORTS...ALBERTA
CITY           SKY/WX    TMP DP  RH WIND       PRES   REMARKS
CALGARY        SUNNY     82  54  38 E6        30.26S
LETHBRIDGE     PTSUNNY   82  52  35 E12       30.23S
MEDICINE HAT   PTCLDY    86  48  27 NE8G18    30.19F
EDMONTON       N/A       81  59  47 SE9G20    30.24S HI  81
WATERTON GATE  N/A       82  55  40 E3         N/A   HI  81
CARDSTON       N/A       82  55  40 NE7        N/A   HI  81
MILK RIVER     N/A       84  43  24 NE9        N/A
$$

REGIONAL REPORTS...SASKATCHEWAN
CITY           SKY/WX    TMP DP  RH WIND       PRES   REMARKS
SWIFT CURRENT  SUNNY     72  43  35 NW14G23   30.21S
REGINA         SUNNY     68  46  45 N21G28    30.15R
VAL MARIE      N/A       77  52  42 N14G20     N/A
ASSINIBOIA     N/A       70  39  32 N16G23     N/A
CORONACH       N/A       73  37  27 N17G25     N/A

$$



USA.gov is the U.S. government's official web portal to all federal, state and local government web resources and services.